Location: Days
(41.3591°N, 106.7339°W)
Time: 17:23:45
(UTC+00:00)

O/OREOS (USA 219) - Pass Details

Date: 28 June 2022
Orbit: 621 x 646 km, 72.0° (Epoch: 22 May)

Event Time Altitude Azimuth Distance (km) Brightness Sun altitude
Rises 07:47:34 0° 343° (NNW) 2,961 ? -24.8°
Reaches altitude 10° 07:49:57 10° 351° (N) 2,049 ? -24.7°
Maximum altitude 07:54:21 43° 63° (ENE) 909 ? -24.6°
Enters shadow 07:55:38 35° 103° (ESE) 1,053 ? -24.5°
